Hourly Data Report for October 01, 2014

All times are specified in Local Standard Time (LST). Add 1 hour to adjust for Daylight Saving Time where and when it is observed.

SAINT JOHN A
NEW BRUNSWICK

45°18'58.000" N
65°53'24.000" W
108.80 m
8104901
71609
YSJ

Download Data

Hourly Data (October 2014)
Hourly Data Report for October 1, 2014
Temp Definition
°C
Dew Point Temp Definition
°C
Rel Hum Definition
%
Wind Dir Definition
10's deg

Wind Spd Definition
km/h
Visibility Definition
km
Stn Press Definition
kPa
Hmdx Definition


Wind Chill Definition


Weather Definition


TIME
00:00 Legend Double Dagger 12.0 12.0 100 1 7 4.8 100.59     Fog
01:00 Legend Double Dagger 11.7 11.7 100 3 9 3.2 100.62     Fog
02:00 Legend Double Dagger 11.8 11.8 100 2 9 3.2 100.61     Fog
03:00 Legend Double Dagger 11.8 11.8 100 36 13 4.8 100.60     Fog
04:00 Legend Double Dagger 11.5 11.5 100 2 19 6.4 100.62     Fog
05:00 Legend Double Dagger 10.9 10.9 100 2 23 6.4 100.64     Fog
06:00 Legend Double Dagger 10.8 10.8 100 2 18 16.1 100.70     LegendNANA
07:00 Legend Double Dagger 10.7 10.6 99 3 15 24.1 100.76     LegendNANA
08:00 Legend Double Dagger 10.9 10.5 97 3 14 24.1 100.78     Cloudy
09:00 Legend Double Dagger 11.6 10.8 95 3 18 24.1 100.87     LegendNANA
10:00 Legend Double Dagger 12.6 11.2 91 3 19 24.1 100.87     LegendNANA
11:00 Legend Double Dagger 13.5 11.4 87 2 16 24.1 100.87     Cloudy
12:00 Legend Double Dagger 14.0 11.6 85 2 15 24.1 100.86     LegendNANA
13:00 Legend Double Dagger 13.1 11.7 91 1 17 24.1 100.84     LegendNANA
14:00 Legend Double Dagger 13.0 11.4 90 3 16 24.1 100.80     Cloudy
15:00 Legend Double Dagger 13.1 11.2 88 2 15 24.1 100.81     LegendNANA
16:00 Legend Double Dagger 12.9 10.6 86 3 18 24.1 100.82     LegendNANA
17:00 Legend Double Dagger 12.4 10.2 86 3 17 24.1 100.86     Cloudy
18:00 Legend Double Dagger 11.5 10.1 91 4 12 12.9 100.95     LegendNANA
19:00 Legend Double Dagger 11.0 9.9 93 3 17 16.1 101.00     Drizzle
20:00 Legend Double Dagger 10.2 9.6 96 3 19 24.1 101.03     Drizzle
21:00 Legend Double Dagger 10.0 8.8 92 3 13 16.1 101.04     Drizzle
22:00 Legend Double Dagger 9.9 8.0 88 4 14 24.1 101.06     LegendNANA
23:00 Legend Double Dagger 9.5 7.8 89 3 15 24.1 101.05     Cloudy

Notes on Data Quality.

Legend

  • E = Estimated
  • M = Missing
  • NA = Not Available
  • ‡ = Partner data that is not subject to review by the National Climate Archives
Date modified: